Preview of NWS' New Version of Forecast
This preview is not operational and should not be used for support decisions.

Regional Weather Roundup (RWR)

Issued by National Weather Service (NWS)

                            
000
ASUS46 KPQR 241610
RWROR 

OREGON REGIONAL WEATHER ROUNDUP
NATIONAL WEATHER SERVICE PORTLAND OR
900 AM PDT MON JUN 24 2019

NOTE: "FAIR" INDICATES FEW OR NO CLOUDS BELOW 12,000 FEET WITH
NO SIGNIFICANT WEATHER AND/OR OBSTRUCTIONS TO VISIBILITY.

ORZ001>013-241700-
NORTHWEST OREGON

  
CITY           SKY/WX    TMP DP  RH WIND       PRES   REMARKS
ASTORIA        CLOUDY    57  49  74 N6        30.09F                  
TILLAMOOK      MOSUNNY   55  46  71 CALM      30.12S                  
NEWPORT        SUNNY     55  48  76 CALM      30.12F                  
PORTLAND       MOSUNNY   59  46  62 CALM      30.10S                  
VANCOUVER WA   CLOUDY    59  46  62 VRB5      30.09F                  
SCAPPOOSE      PTSUNNY   58  49  72 CALM      30.09S                  
HILLSBORO      CLOUDY    57  46  66 CALM      30.10S                  
AURORA         MOSUNNY   59  45  59 N5        30.11S                  
MCMINNVILLE    SUNNY     59  45  59 VRB5      30.09F                  
SALEM          MOSUNNY   58  44  60 NE7       30.08F                  
CORVALLIS      MOSUNNY   60  46  59 VRB5      30.09F                  
EUGENE         MOSUNNY   59  46  62 N12       30.09S                  
$$

ORZ021-028-241700-
SOUTHWEST OREGON

  
CITY           SKY/WX    TMP DP  RH WIND       PRES   REMARKS
NORTH BEND     SUNNY     56  51  84 N3        30.09F                  
BROOKINGS      SUNNY     56  48  74 S5        30.03R                  
ROSEBURG       CLOUDY    59  47  64 N5        30.07S                  
SEXTON SUMMIT  SUNNY     58  47  66 CALM      30.06S                  
GRANTS PASS    FAIR      64  46  52 CALM      30.06S                  
MEDFORD        SUNNY     63  45  51 N5        30.02F                  
$$

ORZ014>016-041-241700-
COLUMBIA GORGE

  
CITY           SKY/WX    TMP DP  RH WIND       PRES   REMARKS
TROUTDALE      SUNNY     57  46  66 CALM      30.10S                  
HOOD RIVER     SUNNY     59  43  55 NW13G21   30.04F                  
THE DALLES     SUNNY     62  42  47 NW17G23   30.01F                  
$$

ORZ029>031-041-044-049-050-061>064-502-503-505>511-241700-
EASTERN OREGON

  
CITY           SKY/WX    TMP DP  RH WIND       PRES   REMARKS
MADRAS         SUNNY     55  43  62 MISG      30.05F                  
REDMOND        SUNNY     60  41  49 N3        30.03F                  
BEND           SUNNY     61  41  48 SW3       30.02F                  
PRINEVILLE     SUNNY     57  39  51 CALM      30.03S                  
KLAMATH FALLS  SUNNY     59  41  51 CALM      30.04F                  
LAKEVIEW       SUNNY     58  40  51 SE5       30.06F                  
HERMISTON      SUNNY     64  44  48 W13       30.00S                  
PENDLETON      SUNNY     62  40  44 W14       30.00S                  
JOHN DAY       SUNNY     56  38  51 SW3       30.05S                  
MEACHAM        SUNNY     54  34  46 VRB5      30.02S                  
LA GRANDE      SUNNY     56  38  50 NE7       30.03F                  
BAKER CITY     SUNNY     58  41  53 CALM      30.03S                  
BURNS          MOSUNNY   57  36  45 VRB3      30.06S                  
ROME             N/A     66  37  34 NE9       30.02F                  
ONTARIO        SUNNY     67  38  34 VRB3      30.01F                  
$$